| time (UTC) | temp C | wind direction | speed KPH | gust KPH | rain 1hr cm | rain 24hr cm | rain mn cm | humidity % | barometer mb |
| 20260510190003 | 12 | 35 | 4.8 | 9.7 | 0.00 | 0.00 | 0.00 | 51 | 1013.5 |
| 20260510185219 | 12 | 33 | 4.8 | 12.9 | 0.00 | 0.00 | 0.00 | 51 | 1013.8 |
| 20260510184003 | 12 | 51 | 8.0 | 17.7 | 0.00 | 0.00 | 0.00 | 50 | 1013.5 |
| 20260510183003 | 12 | 55 | 9.7 | 17.7 | 0.00 | 0.00 | 0.00 | 49 | 1013.7 |
| 20260510182003 | 13 | 57 | 8.0 | 22.5 | 0.00 | 0.00 | 0.00 | 50 | 1013.6 |
| 20260510181003 | 13 | 54 | 6.4 | 16.1 | 0.00 | 0.00 | 0.00 | 49 | 1013.6 |
| 20260510180003 | 13 | 53 | 6.4 | 14.5 | 0.00 | 0.00 | 0.00 | 51 | 1013.7 |
| 20260510175220 | 13 | 44 | 6.4 | 17.7 | 0.00 | 0.00 | 0.00 | 50 | 1013.7 |
| 20260510174003 | 13 | 57 | 8.0 | 22.5 | 0.00 | 0.00 | 0.00 | 50 | 1013.8 |
| 20260510173003 | 13 | 47 | 9.7 | 17.7 | 0.00 | 0.00 | 0.00 | 50 | 1013.8 |
| 20260510172003 | 14 | 64 | 11.3 | 20.9 | 0.00 | 0.00 | 0.00 | 50 | 1013.9 |
| 20260510171003 | 13 | 60 | 8.0 | 20.9 | 0.00 | 0.00 | 0.00 | 53 | 1013.8 |
| 20260510170003 | 13 | 49 | 6.4 | 14.5 | 0.00 | 0.00 | 0.00 | 52 | 1014.1 |
| 20260510165003 | 13 | 58 | 9.7 | 25.7 | 0.00 | 0.00 | 0.00 | 51 | 1014.3 |
| 20260510164003 | 14 | 60 | 9.7 | 20.9 | 0.00 | 0.00 | 0.00 | 55 | 1014.3 |
| 20260510163003 | 13 | 55 | 9.7 | 20.9 | 0.00 | 0.00 | 0.00 | 53 | 1014.4 |
| 20260510162003 | 14 | 70 | 8.0 | 25.7 | 0.00 | 0.00 | 0.00 | 52 | 1014.6 |
| 20260510161003 | 13 | 62 | 8.0 | 16.1 | 0.00 | 0.00 | 0.00 | 52 | 1014.6 |
| 20260510160003 | 13 | 57 | 9.7 | 20.9 | 0.00 | 0.00 | 0.00 | 55 | 1014.7 |
| 20260510155003 | 13 | 77 | 11.3 | 22.5 | 0.00 | 0.00 | 0.00 | 54 | 1014.9 |
| 20260510154003 | 13 | 56 | 11.3 | 20.9 | 0.00 | 0.00 | 0.00 | 56 | 1014.9 |
| 20260510153003 | 13 | 59 | 9.7 | 17.7 | 0.00 | 0.00 | 0.00 | 57 | 1014.9 |
| 20260510152003 | 13 | 59 | 11.3 | 22.5 | 0.00 | 0.00 | 0.00 | 58 | 1015.0 |
| 20260510151003 | 13 | 64 | 11.3 | 22.5 | 0.00 | 0.00 | 0.00 | 60 | 1015.0 |
| 20260510150003 | 14 | 62 | 9.7 | 22.5 | 0.00 | 0.00 | 0.00 | 56 | 1015.4 |
| 20260510145217 | 13 | 65 | 9.7 | 22.5 | 0.00 | 0.00 | 0.00 | 56 | 1015.4 |
| 20260510144003 | 12 | 62 | 9.7 | 27.4 | 0.00 | 0.00 | 0.00 | 61 | 1015.6 |
| 20260510143003 | 13 | 60 | 9.7 | 20.9 | 0.00 | 0.00 | 0.00 | 60 | 1015.8 |
| 20260510142003 | 12 | 53 | 9.7 | 20.9 | 0.00 | 0.00 | 0.00 | 62 | 1015.9 |
| 20260510141003 | 12 | 61 | 11.3 | 25.7 | 0.00 | 0.00 | 0.00 | 62 | 1015.8 |
| 20260510140003 | 12 | 55 | 9.7 | 20.9 | 0.00 | 0.00 | 0.00 | 64 | 1015.9 |
| 20260510135003 | 12 | 56 | 11.3 | 24.1 | 0.00 | 0.00 | 0.00 | 63 | 1016.0 |
| 20260510134218 | 12 | 55 | 11.3 | 22.5 | 0.00 | 0.00 | 0.00 | 65 | 1016.2 |
| 20260510133003 | 12 | 49 | 11.3 | 22.5 | 0.00 | 0.00 | 0.00 | 64 | 1016.0 |
| 20260510132003 | 12 | 48 | 11.3 | 24.1 | 0.00 | 0.00 | 0.00 | 66 | 1016.3 |
| 20260510131003 | 12 | 42 | 11.3 | 30.6 | 0.00 | 0.00 | 0.00 | 66 | 1016.3 |
| 20260510130003 | 12 | 61 | 11.3 | 30.6 | 0.00 | 0.00 | 0.00 | 66 | 1016.1 |
| 20260510125003 | 12 | 40 | 9.7 | 22.5 | 0.00 | 0.00 | 0.00 | 67 | 1016.4 |
| 20260510124219 | 12 | 50 | 11.3 | 25.7 | 0.00 | 0.00 | 0.00 | 67 | 1016.6 |
| 20260510123003 | 12 | 52 | 12.9 | 29.0 | 0.00 | 0.00 | 0.00 | 68 | 1016.6 |
| 20260510122003 | 12 | 56 | 11.3 | 24.1 | 0.00 | 0.00 | 0.00 | 68 | 1016.7 |
| 20260510121003 | 12 | 50 | 11.3 | 24.1 | 0.00 | 0.00 | 0.00 | 69 | 1016.8 |
| 20260510120003 | 11 | 47 | 11.3 | 20.9 | 0.00 | 0.00 | 0.00 | 70 | 1017.0 |
| 20260510115003 | 11 | 43 | 9.7 | 27.4 | 0.00 | 0.00 | 0.00 | 70 | 1017.1 |
| 20260510114003 | 11 | 45 | 14.5 | 29.0 | 0.00 | 0.00 | 0.00 | 70 | 1017.0 |
| 20260510113003 | 11 | 60 | 11.3 | 24.1 | 0.00 | 0.00 | 0.00 | 72 | 1017.2 |
| 20260510112003 | 11 | 46 | 12.9 | 24.1 | 0.00 | 0.00 | 0.00 | 72 | 1017.2 |
| 20260510111003 | 10 | 49 | 9.7 | 22.5 | 0.00 | 0.00 | 0.00 | 73 | 1017.3 |
| 20260510110003 | 10 | 38 | 9.7 | 24.1 | 0.00 | 0.00 | 0.00 | 73 | 1017.3 |
| 20260510105003 | 10 | 37 | 11.3 | 27.4 | 0.00 | 0.00 | 0.00 | 74 | 1017.7 |
| 20260510104003 | 10 | 48 | 11.3 | 25.7 | 0.00 | 0.00 | 0.00 | 75 | 1017.7 |
| 20260510103003 | 10 | 55 | 9.7 | 20.9 | 0.00 | 0.00 | 0.00 | 76 | 1017.6 |
| 20260510102003 | 10 | 44 | 11.3 | 22.5 | 0.00 | 0.00 | 0.00 | 76 | 1017.7 |
| 20260510101003 | 10 | 47 | 11.3 | 24.1 | 0.00 | 0.00 | 0.00 | 77 | 1017.8 |
| 20260510100003 | 10 | 53 | 12.9 | 27.4 | 0.00 | 0.00 | 0.00 | 77 | 1017.6 |
| 20260510095003 | 10 | 58 | 12.9 | 27.4 | 0.00 | 0.00 | 0.00 | 77 | 1017.8 |
| 20260510094003 | 10 | 54 | 12.9 | 25.7 | 0.00 | 0.00 | 0.00 | 78 | 1017.8 |
| 20260510093003 | 10 | 59 | 11.3 | 24.1 | 0.00 | 0.00 | 0.00 | 79 | 1018.0 |
| 20260510092003 | 9 | 41 | 12.9 | 29.0 | 0.00 | 0.00 | 0.00 | 79 | 1018.0 |
| 20260510091003 | 9 | 37 | 11.3 | 24.1 | 0.00 | 0.00 | 0.00 | 79 | 1017.9 |
| 20260510090003 | 9 | 55 | 12.9 | 27.4 | 0.00 | 0.00 | 0.00 | 79 | 1018.1 |
| 20260510085003 | 9 | 46 | 12.9 | 27.4 | 0.00 | 0.00 | 0.00 | 79 | 1018.0 |
| 20260510084003 | 9 | 35 | 11.3 | 27.4 | 0.00 | 0.00 | 0.00 | 79 | 1018.1 |
| 20260510083003 | 9 | 55 | 12.9 | 24.1 | 0.00 | 0.00 | 0.00 | 79 | 1018.1 |
| 20260510082003 | 10 | 39 | 11.3 | 27.4 | 0.00 | 0.00 | 0.00 | 79 | 1018.1 |
| 20260510081003 | 10 | 34 | 11.3 | 24.1 | 0.00 | 0.00 | 0.00 | 79 | 1018.1 |
| 20260510080003 | 10 | 34 | 11.3 | 22.5 | 0.00 | 0.00 | 0.00 | 79 | 1017.9 |
| 20260510075003 | 10 | 49 | 11.3 | 24.1 | 0.00 | 0.00 | 0.00 | 79 | 1018.1 |
| 20260510074003 | 10 | 50 | 11.3 | 22.5 | 0.00 | 0.00 | 0.00 | 80 | 1018.0 |
| 20260510073218 | 10 | 41 | 11.3 | 29.0 | 0.00 | 0.00 | 0.00 | 79 | 1018.2 |
| 20260510072003 | 10 | 42 | 14.5 | 33.8 | 0.00 | 0.00 | 0.00 | 80 | 1017.9 |
| 20260510071003 | 10 | 39 | 11.3 | 27.4 | 0.00 | 0.00 | 0.00 | 80 | 1018.0 |
| 20260510070003 | 10 | 43 | 11.3 | 33.8 | 0.00 | 0.00 | 0.00 | 79 | 1017.8 |
| 20260510065003 | 10 | 43 | 12.9 | 27.4 | 0.00 | 0.00 | 0.00 | 80 | 1017.8 |
| 20260510064003 | 10 | 56 | 11.3 | 27.4 | 0.00 | 0.00 | 0.00 | 79 | 1017.8 |
| 20260510063003 | 10 | 36 | 9.7 | 20.9 | 0.00 | 0.00 | 0.00 | 79 | 1017.7 |
| 20260510062003 | 10 | 43 | 9.7 | 20.9 | 0.00 | 0.00 | 0.00 | 79 | 1017.6 |
| 20260510061003 | 10 | 48 | 8.0 | 17.7 | 0.00 | 0.00 | 0.00 | 79 | 1017.7 |
| 20260510060003 | 10 | 41 | 11.3 | 24.1 | 0.00 | 0.00 | 0.00 | 79 | 1017.5 |
| 20260510055003 | 10 | 40 | 9.7 | 22.5 | 0.00 | 0.00 | 0.00 | 79 | 1017.4 |
| 20260510054003 | 10 | 48 | 11.3 | 25.7 | 0.00 | 0.00 | 0.00 | 79 | 1017.5 |
| 20260510053003 | 10 | 37 | 9.7 | 27.4 | 0.00 | 0.00 | 0.00 | 80 | 1017.7 |
| 20260510052003 | 10 | 40 | 11.3 | 33.8 | 0.00 | 0.00 | 0.00 | 79 | 1017.5 |
| 20260510051221 | 9 | 37 | 11.3 | 20.9 | 0.00 | 0.00 | 0.00 | 80 | 1017.4 |
| 20260510050003 | 9 | 42 | 9.7 | 22.5 | 0.00 | 0.00 | 0.00 | 81 | 1017.5 |
| 20260510045003 | 9 | 28 | 9.7 | 22.5 | 0.00 | 0.00 | 0.00 | 80 | 1017.4 |
| 20260510044003 | 9 | 42 | 11.3 | 29.0 | 0.00 | 0.00 | 0.00 | 80 | 1017.6 |
| 20260510043003 | 9 | 40 | 11.3 | 24.1 | 0.00 | 0.00 | 0.00 | 80 | 1017.7 |
| 20260510042003 | 9 | 35 | 11.3 | 24.1 | 0.00 | 0.00 | 0.00 | 80 | 1017.7 |
| 20260510041217 | 9 | 43 | 11.3 | 24.1 | 0.00 | 0.00 | 0.00 | 80 | 1017.6 |
| 20260510040003 | 9 | 43 | 9.7 | 20.9 | 0.00 | 0.00 | 0.00 | 81 | 1017.7 |
| 20260510035003 | 9 | 35 | 9.7 | 22.5 | 0.00 | 0.00 | 0.00 | 82 | 1017.7 |
| 20260510034003 | 9 | 40 | 8.0 | 22.5 | 0.00 | 0.00 | 0.00 | 82 | 1017.8 |
| 20260510033003 | 9 | 46 | 8.0 | 22.5 | 0.00 | 0.00 | 0.00 | 83 | 1017.6 |
| 20260510032003 | 9 | 44 | 9.7 | 17.7 | 0.00 | 0.00 | 0.00 | 84 | 1018.0 |
| 20260510031003 | 9 | 41 | 11.3 | 30.6 | 0.00 | 0.00 | 0.00 | 84 | 1018.3 |
| 20260510030003 | 9 | 40 | 11.3 | 25.7 | 0.00 | 0.03 | 0.00 | 84 | 1018.1 |
| 20260510025003 | 9 | 48 | 11.3 | 29.0 | 0.00 | 0.03 | 0.00 | 84 | 1018.1 |
| 20260510024003 | 9 | 53 | 12.9 | 30.6 | 0.00 | 0.03 | 0.00 | 83 | 1018.2 |
| 20260510023003 | 10 | 62 | 11.3 | 24.1 | 0.00 | 0.03 | 0.00 | 83 | 1018.0 |
| 20260510022003 | 10 | 56 | 11.3 | 25.7 | 0.00 | 0.03 | 0.00 | 82 | 1018.1 |
| 20260510021218 | 10 | 45 | 12.9 | 29.0 | 0.00 | 0.03 | 0.00 | 81 | 1018.0 |
| 20260510020003 | 10 | 39 | 11.3 | 25.7 | 0.00 | 0.03 | 0.00 | 81 | 1018.0 |
| 20260510015003 | 10 | 48 | 12.9 | 24.1 | 0.00 | 0.03 | 0.00 | 81 | 1017.9 |
| 20260510014003 | 10 | 51 | 14.5 | 30.6 | 0.00 | 0.03 | 0.00 | 81 | 1018.0 |
| 20260510013003 | 10 | 48 | 12.9 | 25.7 | 0.00 | 0.03 | 0.00 | 81 | 1017.7 |
| 20260510012003 | 10 | 45 | 12.9 | 30.6 | 0.00 | 0.03 | 0.00 | 80 | 1018.0 |
| 20260510011003 | 10 | 49 | 14.5 | 27.4 | 0.00 | 0.03 | 0.00 | 79 | 1017.9 |
| 20260510010003 | 10 | 33 | 14.5 | 29.0 | 0.00 | 0.03 | 0.00 | 79 | 1017.8 |
| 20260510005003 | 10 | 35 | 16.1 | 30.6 | 0.00 | 0.03 | 0.00 | 79 | 1018.2 |
| 20260510004003 | 10 | 33 | 14.5 | 35.4 | 0.00 | 0.03 | 0.00 | 78 | 1018.0 |
| 20260510003003 | 10 | 29 | 12.9 | 33.8 | 0.00 | 0.03 | 0.00 | 79 | 1017.9 |
| 20260510002003 | 10 | 31 | 12.9 | 29.0 | 0.00 | 0.03 | 0.00 | 79 | 1017.9 |
| 20260510001003 | 11 | 23 | 12.9 | 33.8 | 0.00 | 0.03 | 0.00 | 79 | 1017.9 |
| 20260510000003 | 11 | 27 | 12.9 | 25.7 | 0.00 | 0.03 | 0.00 | 79 | 1017.7 |
| 20260509235003 | 11 | 26 | 12.9 | 22.5 | 0.00 | 0.03 | 0.00 | 79 | 1017.7 |
| 20260509234003 | 11 | 17 | 11.3 | 24.1 | 0.00 | 0.03 | 0.00 | 78 | 1017.7 |
| 20260509233003 | 11 | 20 | 9.7 | 22.5 | 0.00 | 0.03 | 0.00 | 78 | 1017.8 |
| 20260509232003 | 11 | 16 | 9.7 | 24.1 | 0.00 | 0.03 | 0.00 | 77 | 1017.7 |
| 20260509231003 | 11 | 19 | 11.3 | 27.4 | 0.00 | 0.03 | 0.00 | 77 | 1017.6 |
| 20260509230003 | 12 | 29 | 11.3 | 24.1 | 0.00 | 0.03 | 0.00 | 76 | 1017.5 |
| 20260509225003 | 12 | 23 | 11.3 | 25.7 | 0.00 | 0.03 | 0.03 | 75 | 1017.6 |
| 20260509224218 | 12 | 24 | 9.7 | 22.5 | 0.00 | 0.03 | 0.03 | 75 | 1017.4 |
| 20260509223003 | 12 | 25 | 9.7 | 27.4 | 0.00 | 0.03 | 0.03 | 75 | 1017.2 |
| 20260509222003 | 12 | 23 | 11.3 | 30.6 | 0.00 | 0.03 | 0.03 | 75 | 1017.3 |
| 20260509221003 | 13 | 19 | 9.7 | 24.1 | 0.00 | 0.03 | 0.03 | 75 | 1017.2 |
| 20260509220003 | 13 | 19 | 11.3 | 22.5 | 0.00 | 0.03 | 0.03 | 75 | 1017.2 |
| 20260509215003 | 13 | 16 | 9.7 | 24.1 | 0.00 | 0.03 | 0.03 | 74 | 1017.1 |
| 20260509214003 | 13 | 15 | 9.7 | 20.9 | 0.00 | 0.03 | 0.03 | 74 | 1017.2 |
| 20260509213003 | 13 | 19 | 9.7 | 27.4 | 0.00 | 0.03 | 0.03 | 73 | 1017.2 |
| 20260509212003 | 13 | 17 | 11.3 | 30.6 | 0.00 | 0.03 | 0.03 | 73 | 1017.0 |
| 20260509211003 | 13 | 15 | 11.3 | 25.7 | 0.00 | 0.03 | 0.03 | 74 | 1016.8 |
| 20260509210003 | 14 | 19 | 11.3 | 22.5 | 0.00 | 0.03 | 0.03 | 74 | 1016.7 |
| 20260509205003 | 14 | 6 | 8.0 | 22.5 | 0.00 | 0.03 | 0.03 | 74 | 1016.7 |
| 20260509204003 | 14 | 4 | 9.7 | 20.9 | 0.00 | 0.03 | 0.03 | 74 | 1016.6 |
| 20260509203220 | 14 | 1 | 8.0 | 20.9 | 0.00 | 0.03 | 0.03 | 73 | 1016.3 |
| 20260509202003 | 14 | 359 | 9.7 | 24.1 | 0.00 | 0.03 | 0.03 | 72 | 1016.3 |
| 20260509201003 | 15 | 3 | 11.3 | 24.1 | 0.00 | 0.03 | 0.03 | 72 | 1016.4 |
| 20260509200003 | 15 | 2 | 11.3 | 22.5 | 0.00 | 0.03 | 0.03 | 71 | 1016.2 |
| 20260509195003 | 15 | 3 | 11.3 | 22.5 | 0.00 | 0.03 | 0.03 | 70 | 1016.2 |
| 20260509194003 | 15 | 355 | 11.3 | 22.5 | 0.00 | 0.08 | 0.03 | 69 | 1016.2 |
| 20260509193003 | 16 | 358 | 11.3 | 24.1 | 0.00 | 0.18 | 0.03 | 68 | 1015.8 |
| 20260509192003 | 16 | 358 | 9.7 | 24.1 | 0.00 | 0.18 | 0.03 | 65 | 1015.8 |
| 20260509191003 | 16 | 360 | 4.8 | 11.3 | 0.00 | 0.18 | 0.03 | 55 | 1015.8 |